Theta_e
352 361 367 368 369 367 366 365 363 362 362 362 361 361 360 360 361 362 362 362 361 362 361 360 358 357 357 353 355 356 357 356 355 353 353 353 352 352 352 351 349 348 352
356 360 366 367 369 367 366 365 363 362 362 362 362 361 360 360 362 362 362 361 362 363 362 360 357 356 355 354 355 356 354 355 354 353 352 352 352 351 350 350 353 349 352
356 361 362 366 368 367 365 364 362 361 362 362 362 362 360 360 361 362 362 361 362 362 360 359 358 356 355 354 354 355 355 355 355 355 355 348 345 351 349 348 350 350 350
358 360 360 366 367 367 365 363 362 361 362 362 362 362 360 360 361 362 362 361 360 360 360 358 357 355 354 353 353 355 354 353 354 354 353 354 343 352 350 348 348 348 349
359 361 364 366 366 366 365 363 361 361 361 362 362 361 359 360 361 362 362 362 360 356 356 356 355 355 354 353 353 354 351 353 354 354 351 351 342 351 353 350 348 349 348
359 359 363 365 365 365 364 363 361 361 361 361 362 361 359 361 361 362 362 361 359 356 355 355 356 356 355 355 355 354 354 356 356 350 353 349 347 355 355 352 349 350 351
356 362 362 364 365 365 364 363 362 361 361 361 361 360 360 361 361 361 361 360 359 358 357 355 356 356 356 355 355 355 354 355 349 347 349 354 351 356 357 355 354 353 353
354 359 359 364 364 363 363 363 362 361 361 361 360 360 360 360 360 360 359 359 359 358 359 357 357 356 356 355 355 355 354 355 349 347 346 350 352 355 358 357 356 356 356
357 357 355 359 363 363 362 362 361 360 359 359 359 359 359 360 359 359 359 359 358 358 358 358 356 356 355 355 355 355 355 356 348 343 345 346 352 354 357 357 358 357 357
356 354 351 353 357 359 359 361 361 360 360 359 358 358 359 359 358 358 356 358 358 358 358 357 356 355 355 355 355 354 354 355 346 341 340 346 349 352 352 352 354 356 358
353 353 350 349 351 351 354 358 359 359 359 358 359 358 356 352 354 354 353 356 357 357 357 356 355 355 355 355 354 354 354 345 340 339 340 351 352 353 351 352 354 354 354
350 350 349 349 346 345 346 355 354 355 355 355 353 354 351 350 352 349 352 356 357 356 356 355 355 355 352 344 345 352 347 342 338 336 337 351 351 353 351 352 354 355 355
351 351 349 350 349 345 345 349 347 349 349 350 351 352 351 347 352 347 352 351 352 353 348 350 349 347 343 342 339 341 343 340 337 335 346 351 351 353 353 354 355 356 358
350 351 350 351 350 350 351 347 348 348 349 347 349 353 348 351 356 349 347 349 350 349 347 347 343 342 340 339 338 336 341 338 337 336 348 352 352 354 352 351 353 355 356
349 352 352 352 352 354 351 350 349 350 350 351 351 353 349 351 357 354 354 354 349 348 349 347 346 347 343 342 342 343 340 339 341 342 347 354 352 353 353 352 354 355 356
353 352 351 352 356 360 362 354 353 356 353 355 353 353 354 356 358 356 358 355 353 353 351 350 348 350 348 345 344 345 343 341 345 348 347 349 351 351 352 353 354 354 351
351 353 346 355 361 363 370 360 355 358 354 355 358 358 357 359 363 353 358 354 355 355 357 353 352 349 346 346 343 344 347 347 346 347 347 345 347 349 349 351 352 353 347
356 355 354 360 363 364 367 366 358 363 359 355 356 358 358 361 361 361 357 353 354 358 354 353 350 347 345 345 347 348 347 347 347 345 346 347 346 343 347 349 350 351 347
358 361 358 361 361 362 364 366 366 369 361 365 358 360 359 361 361 361 359 357 362 355 355 353 353 348 346 349 348 346 347 344 342 342 341 341 344 345 343 347 348 348 344
358 362 362 360 360 363 363 370 364 365 367 363 360 360 365 362 361 361 359 359 357 354 350 351 346 349 347 347 342 337 340 339 339 338 340 341 342 343 345 343 344 340 342
362 360 360 356 359 361 359 359 357 355 360 362 363 362 364 363 361 362 360 356 357 354 354 352 347 343 341 342 337 337 336 336 338 340 341 341 342 343 343 344 343 341 338
360 356 359 356 358 357 356 359 357 355 356 357 354 357 361 359 359 358 355 354 356 355 352 349 344 341 340 339 329 335 328 331 334 340 336 332 335 335 338 337 337 335 335
347 340 350 350 355 354 355 356 357 358 359 352 355 358 359 357 356 356 357 356 353 352 347 343 342 339 334 337 337 332 325 322 329 331 330 327 330 333 331 333 333 334 333
351 343 338 346 352 352 353 355 355 350 347 351 352 355 356 356 356 355 354 352 352 349 346 344 344 337 336 332 336 341 336 332 320 318 323 332 333 336 335 335 330 334 332
347 353 350 353 350 354 353 354 351 351 352 353 353 353 356 356 351 351 351 352 349 349 346 345 343 344 343 338 335 334 334 334 332 324 320 323 327 330 328 328 326 328 329
341 349 354 354 352 352 352 349 353 352 351 348 347 348 348 349 351 351 348 350 350 349 344 344 344 345 343 339 338 336 335 330 325 322 319 320 320 322 325 325 326 326 327
Wind_Speed
17 18 18 16 17 17 17 16 15 14 14 14 15 14 14 13 12 12 14 12 12 11 11 10 9 8 8 9 11 12 11 10 10 11 11 11 10 9 8 6 2 9 10
21 18 16 16 17 17 17 16 15 15 15 15 15 14 14 13 12 11 12 11 11 10 11 11 9 9 8 9 9 9 8 7 7 7 8 9 10 8 6 5 9 11 9
21 16 17 16 17 17 17 16 15 14 14 15 15 14 13 12 11 11 11 10 10 10 11 10 9 8 8 8 8 7 5 4 5 6 8 7 7 10 6 5 7 8 8
20 15 16 16 17 17 16 16 15 15 15 15 14 13 12 11 11 10 11 10 10 10 10 9 8 8 8 7 7 6 3 4 4 5 6 10 10 12 8 5 4 4 5
17 15 15 16 17 17 18 18 16 16 17 16 15 14 13 12 10 8 10 9 9 9 9 8 8 7 7 7 6 4 2 5 6 9 10 4 8 10 10 7 5 5 3
18 16 18 17 17 17 17 17 17 16 16 16 16 16 15 14 12 11 10 9 8 8 8 9 8 7 7 7 5 4 4 7 8 9 10 6 9 13 11 8 5 4 8
18 17 17 16 16 16 17 17 17 17 15 15 15 14 13 13 12 11 10 8 8 8 8 8 7 7 7 7 6 5 6 9 8 10 2 9 8 13 13 11 10 9 8
18 17 16 16 16 16 16 17 16 16 15 15 14 14 13 12 11 10 8 8 8 8 8 7 6 6 7 7 6 6 8 10 10 10 4 6 11 13 11 10 10 10 9
19 17 15 14 14 15 15 15 15 15 14 14 13 12 12 11 11 10 9 9 8 7 8 8 8 7 7 6 6 7 8 11 8 9 10 6 14 12 9 9 10 10 10
19 17 16 14 14 13 12 14 15 14 13 12 12 12 11 11 9 8 7 6 6 6 7 7 7 7 6 6 7 8 9 11 9 10 9 2 15 12 10 7 7 8 10
18 18 17 16 13 13 14 12 14 14 13 12 11 11 10 7 8 10 9 11 9 7 7 6 6 7 7 8 9 11 11 6 9 8 8 15 14 12 9 6 7 9 10
20 21 19 17 16 15 13 13 11 11 9 8 8 9 7 7 8 9 10 13 11 9 8 8 8 8 7 6 7 14 6 9 8 10 5 13 12 12 10 6 6 9 10
19 17 21 18 16 17 14 10 7 6 6 6 9 9 7 6 6 5 5 6 6 8 6 8 7 6 8 7 8 6 10 11 8 7 7 13 10 9 8 6 6 9 10
21 21 22 20 15 13 13 11 10 9 7 7 7 9 6 4 4 5 5 8 8 7 9 8 7 10 11 11 11 11 8 6 4 2 6 11 10 10 8 4 5 8 9
14 21 23 21 15 11 15 11 10 10 9 9 9 10 6 5 4 4 4 4 8 7 9 8 7 7 9 10 8 6 7 7 6 3 4 13 10 9 8 7 7 9 10
10 14 15 21 15 9 7 13 8 8 10 8 9 11 12 6 4 5 4 4 3 3 3 3 2 3 3 4 5 6 9 7 5 4 5 3 9 9 9 9 9 10 7
11 16 16 5 13 10 5 10 8 7 9 7 5 11 12 8 5 5 4 5 4 4 1 3 4 3 4 4 6 7 5 3 3 4 3 4 5 8 10 12 12 11 9
18 23 36 21 14 11 6 5 7 4 4 4 4 8 12 9 6 1 3 3 4 2 2 2 3 4 5 4 3 3 4 5 6 5 5 5 3 4 8 12 13 11 10
7 15 19 18 17 13 9 5 5 4 5 4 3 4 7 7 6 4 3 4 4 2 3 3 4 1 2 3 4 4 4 4 5 6 6 8 8 8 5 7 12 12 12
8 16 17 12 15 13 7 2 4 3 2 5 5 5 6 5 5 2 3 5 4 3 2 3 4 2 3 4 5 6 6 7 6 6 7 7 6 7 6 6 5 8 16
9 12 12 12 12 10 6 5 5 4 3 1 4 8 5 3 5 5 2 4 4 4 3 2 3 5 4 2 3 4 6 9 10 7 5 6 7 9 9 9 6 6 6
14 12 10 8 11 8 7 6 4 4 2 2 2 3 5 5 4 4 6 4 4 2 4 4 3 1 1 3 3 3 5 4 2 2 5 6 8 5 5 7 6 5 4
15 13 7 5 10 9 10 5 5 4 4 3 5 3 4 6 5 3 2 2 3 3 4 5 2 4 2 1 10 5 4 3 2 3 3 6 10 5 4 5 5 7 7
18 21 18 18 17 9 11 8 10 6 6 6 6 6 4 1 3 1 2 1 1 3 6 3 1 1 1 7 4 5 8 3 5 7 3 6 10 5 6 4 5 6 7
12 13 23 17 13 12 10 9 8 8 7 6 5 7 6 4 2 3 3 2 2 3 3 4 5 4 4 4 5 6 7 5 11 5 5 5 3 4 3 2 5 4 5
13 14 15 15 13 12 10 8 10 9 8 9 10 7 6 4 3 2 2 2 1 3 4 4 4 5 4 6 5 6 5 4 5 3 3 4 5 5 4 5 5 5 5
Wind_Direction
133 140 136 138 138 138 138 138 135 133 127 123 122 118 113 111 111 107 107 105 111 117 122 122 113 105 92 80 73 71 72 78 80 89 99 105 105 104 102 97 38 111 109
132 146 135 136 137 140 139 138 136 136 133 132 130 125 122 122 123 117 117 117 119 121 126 131 121 112 105 95 89 90 91 97 111 123 126 127 128 123 117 99 73 113 116
130 143 140 137 139 142 141 139 138 136 133 132 128 125 125 127 128 123 118 119 119 120 123 126 120 116 113 108 103 103 113 148 178 173 173 173 150 142 136 116 100 117 123
133 143 142 142 141 145 142 137 135 135 133 130 128 126 127 129 133 132 125 124 121 123 125 125 122 120 117 117 118 122 156 222 250 252 228 235 151 146 143 134 120 130 144
139 149 135 144 142 146 141 139 138 140 138 135 134 135 136 135 136 135 127 126 127 128 129 130 129 129 128 127 123 133 218 267 285 287 263 266 123 145 148 149 161 177 192
137 157 140 142 143 144 141 140 140 142 141 142 143 144 147 145 145 141 135 138 139 137 140 141 143 140 138 131 137 171 248 276 291 271 273 86 114 153 156 166 186 191 187
149 128 141 141 141 141 142 142 140 140 142 143 143 146 149 147 147 146 145 149 149 149 150 151 150 147 148 157 170 205 246 269 278 282 193 118 129 166 167 175 191 196 202
148 133 141 137 137 140 142 141 141 141 144 145 146 151 150 148 146 146 152 161 160 162 157 156 156 159 165 178 193 226 255 279 297 294 249 130 157 174 177 188 204 210 211
135 134 146 147 140 136 138 136 138 142 145 146 148 150 151 150 152 160 165 167 164 166 157 162 170 180 185 200 216 239 266 286 296 292 290 153 173 166 177 201 219 226 228
140 139 152 153 154 150 143 136 137 141 141 143 146 149 152 153 160 167 163 172 166 163 171 177 185 187 201 220 239 252 262 278 273 277 281 221 165 166 180 206 239 250 247
150 143 158 157 162 165 152 147 137 142 141 143 149 151 151 180 176 174 195 165 171 178 186 194 200 203 211 231 242 245 249 252 260 256 254 161 161 164 165 192 242 252 251
156 155 160 158 167 173 161 150 158 154 164 175 174 168 188 208 172 200 184 163 170 182 195 206 210 216 225 244 220 230 231 241 249 260 267 151 159 157 158 172 245 254 253
166 162 161 160 169 174 152 153 163 158 166 181 180 166 214 210 179 199 145 163 173 191 201 201 205 222 223 229 250 209 216 228 237 254 137 148 150 152 162 176 225 260 261
173 168 156 158 170 184 138 155 165 163 166 174 181 170 198 232 182 181 184 189 187 181 208 198 208 208 214 224 237 263 220 248 239 280 128 142 163 166 168 187 244 256 266
188 169 149 156 168 193 149 158 170 167 169 182 174 171 192 223 207 184 249 216 181 200 192 217 222 204 211 225 237 278 281 272 281 295 150 176 177 173 174 195 234 250 249
137 35 146 144 156 186 164 157 171 164 170 180 173 174 186 213 215 176 199 268 261 251 229 190 250 274 242 242 251 243 241 250 269 359 357 156 178 195 200 203 217 242 263
133 135 96 230 156 169 179 154 165 161 155 174 186 161 177 197 237 191 198 205 218 225 279 16 341 330 314 294 290 275 264 265 226 246 259 284 192 205 219 214 212 219 228
156 168 181 154 160 162 178 163 158 149 171 163 165 153 177 178 206 282 239 280 233 181 130 184 228 246 244 273 286 358 22 354 347 12 327 301 266 257 223 222 223 220 231
196 153 142 147 158 168 177 180 162 167 160 141 152 142 163 164 166 176 261 279 288 194 204 204 233 337 345 314 341 313 325 320 282 263 259 262 244 246 230 210 221 217 227
194 156 144 145 153 161 167 165 164 138 156 111 124 101 108 125 142 197 238 272 331 316 317 346 5 5 302 311 332 317 294 281 271 265 260 262 245 231 222 207 209 219 225
156 133 134 131 146 152 152 157 167 208 166 226 127 117 147 173 186 178 246 283 279 262 270 321 313 302 318 28 343 281 268 261 261 244 248 268 256 246 225 209 196 206 224
135 119 136 128 137 149 156 158 154 197 182 121 83 150 180 191 196 185 219 263 304 313 291 279 305 349 277 232 262 277 290 305 346 318 49 301 257 228 188 222 190 225 201
131 132 137 191 158 170 152 165 174 150 140 167 186 145 173 195 183 201 250 245 286 287 267 256 199 199 274 39 261 221 301 289 334 5 225 245 284 257 210 234 228 224 211
144 155 164 196 188 166 139 188 172 161 165 189 165 164 146 139 344 219 142 279 280 277 278 275 224 210 285 258 277 242 246 308 341 283 265 234 233 227 234 241 244 239 231
148 151 165 151 156 158 156 165 167 181 187 178 158 132 117 135 39 319 74 182 245 264 239 221 234 236 241 271 278 296 310 264 221 201 285 281 316 304 294 256 257 257 256
157 144 139 148 146 146 156 179 196 205 203 138 141 141 143 132 145 179 83 140 160 238 275 304 301 278 264 263 282 297 291 304 324 318 298 295 287 298 290 291 293 286 277